Regional Weather Roundup
Issued by NWS

Home | Current Version | Previous Version | Text Only | Print | Product List | Glossary On
Versions: 1 2 3 4 5 6 7 8 9 10 11 12 13 14 15 16 17 18 19 20 21 22 23 24 25 26 27 28 29 30 31 32 33 34 35 36 37 38 39 40 41 42 43 44 45 46 47 48 49 50
000
ASUS43 KFSD 031810
RWRSD

WEATHER ROUNDUP FOR SOUTH DAKOTA
NATIONAL WEATHER SERVICE SIOUX FALLS SD
1200 PM CST TUE MAR 03 2015

NOTE: "FAIR" INDICATES FEW OR NO CLOUDS BELOW 12,000 FEET WITH NO
SIGNIFICANT WEATHER AND/OR OBSTRUCTIONS TO VISIBILITY.


SDZ001>005-009-010-012>017-031900-
NORTHWEST AND NORTH CENTRAL SOUTH DAKOTA

CITY           SKY/WX    TMP DP  RH WIND       PRES   REMARKS
BUFFALO          N/A     13  -2  51 NW32G39   29.94S WCI  -9
FAITH            N/A     15   3  59 NW25      30.01R WCI  -4
MOBRIDGE       SUNNY     16  -1  47 NW28G36   29.99S WCI  -4
$$

SDZ012>016-024>037-041>051-057-063-072>074-031900-
SOUTHWEST AND SOUTH CENTRAL SOUTH DAKOTA

CITY           SKY/WX    TMP DP  RH WIND       PRES   REMARKS
RAPID CTY ARPT CLOUDY    15   3  59 N25G31    30.01F WCI  -4
PIERRE         CLOUDY    15   2  56 NW26G35   30.05R WCI  -4
CUSTER         CLOUDY    15   3  59 VRB3      29.82S HAZE
ELLSWORTH AFB  CLOUDY    14   2  59 NW24      30.00F WCI  -5
PHILIP         CLOUDY    17   6  62 NW22      30.07S WCI   0
PINE RIDGE     LGT SNOW  17   7  64 N21G26    30.01S WCI   0
SPEARFISH      FAIR      10   1  67 NW14      29.99F WCI  -5
WINNER         CLOUDY    19   6  57 NW26G33   30.02R WCI   1
$$

SDZ004>011-016>023-039-040-031900-
NORTHEAST SOUTH DAKOTA

CITY           SKY/WX    TMP DP  RH WIND       PRES   REMARKS
ABERDEEN       PTSUNNY   11   1  64 NW30G39   30.01R BLWGSNOWWCI -11
WATERTOWN      MIX PCPN  13   5  70 NW28G36   29.87S WCI  -8
$$

SDZ017-020-022-023-036>040-048>070-031900-
SOUTHEAST SOUTH DAKOTA

CITY           SKY/WX    TMP DP  RH WIND       PRES   REMARKS
SIOUX FALLS    CLOUDY    20  13  74 N26G35    29.88R BLWGSNOWWCI   2
HURON          PTSUNNY   14   3  61 N30G39    29.99S WCI  -7
CHAMBERLAIN    MOSUNNY   17   7  63 NW18G30   30.03R WCI   1
MITCHELL       MOSUNNY   17   7  64 NW30G37   30.00R BLWGSNOWWCI  -3
YANKTON        MOSUNNY  N/A N/A N/A NW28G41   29.94R
$$

ABBREVIATIONS USED IN REMARKS
   TC - TEMPERATURE IN CELSIUS
  WCI - WIND CHILL INDEX
   HX - HEAT INDEX
  VSB - VISIBILITY




USA.gov is the U.S. government's official web portal to all federal, state and local government web resources and services.